Temperature
19 18 16 16 16 16 17 17 19 18 16 16 16 15 16 15 15 15 15 14 14 14 13 12 13 13 12 12 12 11 11 10 10 9 10 11 11 11 11 10 10 10 11
17 17 16 16 16 16 17 18 18 17 16 15 15 15 14 14 14 14 14 13 13 13 12 12 11 11 10 9 8 8 9 9 9 8 8 10 11 12 11 10 9 9 9
17 16 16 15 15 15 16 17 16 16 15 15 15 15 15 14 13 13 13 13 12 12 12 11 11 10 9 8 7 7 6 7 8 7 7 8 10 8 9 9 9 8 8
16 16 15 15 14 14 16 16 16 15 15 15 15 14 13 13 13 12 12 11 11 10 8 8 7 7 7 6 6 6 5 6 7 7 7 6 6 6 7 7 7 6 6
16 15 14 14 14 14 14 15 15 14 14 14 13 13 13 12 12 11 10 9 8 7 7 7 7 6 6 6 5 5 4 5 5 6 6 5 5 6 6 6 6 6 6
16 14 13 13 13 13 13 13 14 14 13 13 13 13 13 12 11 10 9 9 8 7 6 6 6 5 5 5 5 4 4 4 4 4 4 5 5 5 5 5 5 5 5
14 12 12 12 13 12 13 13 14 13 13 13 13 13 12 11 10 10 8 8 8 7 6 5 5 5 4 4 4 4 3 3 3 3 3 4 4 4 4 4 4 5 5
12 11 12 12 12 12 12 12 13 12 11 12 12 12 11 11 9 10 8 7 7 6 5 5 5 4 4 4 4 4 4 4 3 3 3 3 4 4 4 4 4 4 4
11 11 11 12 11 11 11 11 11 11 11 11 12 11 11 10 9 7 6 6 6 6 5 5 4 4 4 4 4 4 4 4 4 4 3 3 3 3 3 3 3 3 2
10 10 10 10 10 11 11 11 11 11 11 11 11 11 10 7 6 5 5 6 5 5 5 5 4 4 4 4 4 4 5 4 4 4 4 3 3 3 2 2 1 2 2
10 10 10 9 10 10 10 10 11 12 12 11 10 8 7 6 5 5 6 5 5 5 5 5 5 5 5 5 4 4 4 4 4 4 3 3 3 3 2 2 2 1 1
11 10 9 9 10 11 11 10 9 10 11 9 8 7 7 5 5 5 5 5 5 5 5 5 5 5 5 5 5 5 4 4 4 4 3 3 3 2 2 1 1 1 1
9 9 9 10 10 10 10 9 10 10 9 8 7 6 5 5 5 5 5 5 5 5 5 5 5 5 5 5 4 4 3 3 3 2 2 2 2 1 1 1 1 1 1
8 9 9 10 10 9 9 9 9 9 8 7 6 5 5 5 5 5 5 5 5 5 5 5 5 5 5 4 3 2 2 2 1 1 1 1 0 0 -0 -0 -0 -0 -0
8 8 8 8 8 8 8 9 9 9 8 6 6 6 5 5 5 5 5 5 5 5 5 5 4 4 3 3 3 2 1 1 0 -0 -0 -0 -0 -0 -0 -1 -1 -1 -0
8 8 8 7 8 8 9 8 8 6 6 6 6 6 5 5 5 5 5 5 4 4 4 4 3 3 2 2 2 1 0 -1 -1 -1 -1 -1 -1 -1 -1 -1 -1 -1 -1
8 8 7 6 6 6 6 7 7 6 6 6 6 6 6 6 5 5 5 4 4 3 3 3 2 2 1 1 1 0 -1 -1 -1 -1 -1 -1 -1 -1 -1 -1 -1 -1 -1
7 6 5 5 6 5 6 6 6 5 6 6 6 6 6 6 5 4 4 3 3 2 2 2 1 1 1 0 -0 -0 -0 -1 -1 -1 -1 -1 -1 -1 -1 -1 -1 -0 -0
7 6 5 5 4 5 5 4 5 6 6 6 6 6 5 5 4 4 3 2 2 2 1 1 1 1 0 -0 -0 0 0 -0 -0 -0 -0 -0 -0 -1 -1 -1 -1 -1 -0
6 5 5 4 4 4 4 5 5 6 6 6 5 5 4 4 3 2 2 1 1 1 0 0 0 0 0 -0 -0 0 0 0 0 0 -0 -0 -0 -1 -1 -1 -1 -1 -0
5 5 4 4 3 4 4 4 5 5 5 5 4 4 3 3 2 2 1 1 0 0 -0 -1 -1 -0 -0 -0 -1 -0 0 0 0 -0 -0 -1 -1 -1 -1 -1 -1 -0 -0
5 4 4 3 3 4 4 5 5 4 4 4 3 3 2 2 2 1 1 1 0 -0 -1 -1 -1 -1 -0 -1 -1 0 0 0 0 0 -1 -1 -1 -1 -1 -1 -1 -0 0
4 4 4 4 5 5 5 5 5 4 4 3 3 2 2 1 1 1 1 1 -0 -1 -1 -2 -2 -1 -1 -1 -0 0 0 0 0 0 -1 -1 -1 -1 -1 -1 -0 -0 0
5 5 5 6 5 5 5 5 4 4 3 3 2 2 1 1 1 1 1 -0 -1 -1 -2 -2 -2 -2 -1 -1 -0 0 -0 0 0 -0 -1 -1 -1 -1 -1 -1 -1 -1 -0
6 6 6 6 6 5 5 5 4 3 3 3 2 2 2 1 1 -0 -0 -1 -1 -1 -1 -2 -1 -2 -1 -1 -1 -1 -0 -0 0 -0 -1 -1 -1 -1 -1 -1 -1 -1 -1
6 6 6 6 6 5 5 4 4 3 3 3 3 2 2 1 0 -0 -0 -0 -1 -1 -1 -1 -1 -1 -1 -1 -0 -0 -0 -0 0 -0 -1 -1 -1 -1 -1 -1 -1 -1 -1
Wind_Speed
16 12 10 8 7 5 5 7 9 9 9 8 8 8 7 7 8 9 10 11 10 9 7 5 5 6 5 5 5 5 7 7 6 9 12 12 12 13 11 11 9 11 10
15 14 13 11 9 7 7 8 9 9 8 7 6 6 8 7 8 9 10 10 9 8 6 5 5 5 5 5 5 6 7 8 6 7 11 12 12 10 7 7 9 11 11
18 15 14 12 10 8 9 9 9 9 9 10 10 9 10 8 6 5 4 5 5 5 5 6 6 6 7 5 4 5 7 7 7 5 6 8 10 12 11 10 8 8 9
18 16 14 13 12 11 12 13 12 12 12 10 10 9 7 5 4 4 2 2 3 5 5 4 4 4 4 3 4 4 6 6 7 7 6 7 10 11 10 11 12 12 12
19 18 18 17 15 15 14 15 15 14 13 10 10 9 8 6 4 3 2 2 2 4 5 5 4 3 3 3 3 4 5 6 6 7 7 9 9 11 12 13 13 13 13
17 17 17 17 14 15 14 15 15 14 13 11 10 9 9 5 3 1 4 4 3 3 5 6 5 3 3 3 3 4 5 5 5 6 6 7 8 10 12 14 15 16 16
18 19 18 16 15 15 15 15 14 14 12 11 9 8 6 4 1 2 3 4 2 2 4 3 3 3 4 4 4 4 4 3 5 5 7 8 10 11 12 14 15 16 16
19 19 17 16 15 15 14 15 14 13 11 10 8 6 4 3 2 5 2 2 2 3 2 2 3 4 4 5 5 7 5 5 7 8 8 9 11 12 13 13 15 17 17
18 17 16 14 14 13 13 15 15 14 11 9 8 6 6 6 5 4 1 1 2 3 3 4 5 6 6 7 8 9 9 9 9 10 10 10 12 13 13 14 16 16 15
18 16 14 12 13 14 13 14 14 13 10 9 8 6 6 5 2 1 2 3 3 4 5 5 6 7 9 9 10 11 12 11 12 12 14 14 13 11 12 11 12 16 17
18 18 15 14 13 15 14 13 12 11 10 9 7 3 4 1 2 3 3 4 5 5 6 7 8 10 11 12 13 14 16 16 15 14 16 18 17 16 14 14 13 14 16
18 17 16 15 15 14 14 12 10 10 10 6 3 3 3 1 3 4 4 5 6 7 9 10 12 13 15 15 16 17 17 18 18 17 18 19 17 17 16 15 16 15 14
16 14 15 14 14 13 11 11 10 9 6 4 3 2 1 2 4 4 4 6 7 10 12 13 15 16 17 17 17 17 17 18 17 18 18 18 20 19 17 18 17 15 14
16 14 12 13 12 11 10 9 9 7 5 4 3 1 2 3 4 5 6 8 10 13 14 15 15 15 15 14 13 13 13 15 14 14 15 16 16 17 15 15 17 15 15
15 14 13 13 11 10 9 8 7 6 4 3 2 1 1 2 4 7 9 10 11 11 11 10 10 10 10 8 10 13 15 16 15 16 17 16 18 21 18 16 16 16 15
16 14 13 13 11 9 8 7 6 4 2 1 1 1 2 4 6 8 9 8 8 8 8 8 9 9 7 10 10 13 15 17 16 17 17 16 18 21 20 18 20 20 19
15 14 12 9 8 8 8 6 7 3 1 2 2 2 3 5 6 7 6 6 7 8 9 9 9 9 6 8 9 13 15 15 15 16 15 15 15 16 15 16 18 20 21
13 13 11 10 8 7 7 3 4 3 2 2 3 3 4 5 5 5 7 8 8 9 9 9 9 7 4 5 10 16 15 14 14 14 14 13 15 15 16 15 16 16 18
14 14 12 10 9 7 5 1 2 4 2 3 3 4 4 5 5 7 8 8 8 8 9 8 8 8 7 6 9 14 13 13 14 13 12 13 12 14 16 15 15 16 16
15 15 11 10 9 7 3 1 1 1 2 4 5 5 5 5 6 7 7 7 7 8 9 9 8 6 8 5 7 12 11 12 13 13 13 16 16 17 17 14 14 15 15
16 14 12 8 6 6 5 2 1 4 3 4 6 5 4 4 5 6 6 6 6 6 7 8 8 7 9 8 8 13 12 12 12 13 11 11 15 16 16 13 12 13 13
15 12 10 10 8 6 5 4 5 5 5 5 5 4 4 6 6 6 5 4 6 7 8 9 8 8 8 8 12 16 15 15 13 13 12 12 16 16 15 12 11 13 9
12 12 12 11 8 5 5 7 6 6 6 5 4 5 6 7 6 5 5 7 7 7 9 9 9 9 9 11 15 17 17 17 15 13 17 16 15 15 12 11 9 6 4
14 14 12 12 9 7 6 7 7 6 4 4 4 5 6 5 6 6 8 8 8 8 7 8 9 10 11 11 12 13 14 14 14 14 14 13 12 11 10 9 8 7 6
11 11 11 11 9 7 8 8 6 5 5 5 6 6 6 6 7 7 8 8 8 6 7 8 9 10 10 12 15 13 11 10 12 13 9 8 9 9 7 6 6 6 5
12 11 10 9 9 10 9 8 6 5 4 4 6 6 7 7 6 5 3 3 2 1 3 6 8 8 10 14 17 17 15 15 16 10 9 9 9 8 8 6 7 7 6
Wind_Direction
205 176 175 163 152 134 109 112 120 137 149 153 144 125 116 111 101 88 78 75 69 59 45 39 33 12 10 3 348 333 308 298 303 302 291 278 268 257 254 269 271 268 257
199 188 180 175 169 144 125 121 128 136 145 135 116 118 117 99 88 86 78 74 73 65 54 22 352 348 324 298 310 314 302 293 292 298 305 293 284 265 288 302 286 281 283
197 184 186 174 167 148 128 124 122 121 115 115 116 115 116 119 117 109 113 100 78 43 17 355 342 323 299 316 325 326 319 320 312 306 302 309 312 327 306 291 294 313 304
198 183 168 162 152 148 137 131 125 117 112 118 123 133 132 131 136 147 138 121 34 354 351 354 357 346 331 9 355 8 337 336 325 322 308 305 305 304 308 312 309 299 288
186 177 161 150 150 150 141 133 125 118 115 120 128 132 127 135 150 143 193 270 353 2 2 21 22 5 357 31 12 359 347 335 332 325 322 315 308 301 296 293 292 290 286
163 152 146 142 145 143 136 127 121 121 125 131 134 128 121 125 137 84 319 325 349 13 37 19 25 1 344 344 331 337 336 338 328 324 317 313 314 311 306 302 299 296 294
144 144 145 143 145 143 137 131 132 129 130 122 114 105 107 111 103 60 8 317 338 18 52 2 0 334 333 319 309 310 312 313 314 314 318 321 315 308 303 303 303 299 296
148 148 149 147 149 146 144 139 133 125 116 102 93 83 53 48 48 70 43 295 350 22 16 331 338 330 325 317 303 293 296 300 291 295 298 303 302 305 303 304 304 302 304
147 150 151 150 147 144 147 136 124 113 99 85 68 58 41 36 53 83 248 302 343 353 339 314 302 301 304 311 308 296 292 284 284 288 280 282 297 303 308 306 304 303 296
150 149 154 147 141 140 126 114 111 96 81 71 60 49 61 61 69 238 342 339 332 337 324 309 300 291 289 291 293 291 289 286 283 288 295 292 289 290 292 284 288 294 291
157 155 150 138 145 138 129 122 109 94 81 71 70 59 65 93 230 280 330 308 289 293 299 303 299 294 290 288 284 282 281 280 276 272 275 280 287 291 298 295 290 287 287
159 149 142 151 155 145 139 126 106 91 88 94 109 100 79 323 274 293 313 297 284 287 293 294 289 287 287 287 286 286 287 290 290 288 290 294 290 291 292 293 288 286 284
149 145 146 160 151 143 130 116 100 94 100 105 98 74 16 284 272 287 307 298 290 290 294 295 291 293 299 301 298 297 301 301 302 299 297 292 289 290 292 290 290 290 287
152 148 154 156 140 130 123 112 104 105 108 115 141 194 291 287 276 288 297 297 296 294 295 293 297 303 306 307 319 324 319 307 301 298 292 286 285 284 285 288 289 286 283
159 157 157 143 141 136 116 103 98 105 130 146 152 152 249 278 287 297 305 307 305 309 313 315 315 318 320 359 351 323 311 308 307 301 294 293 298 300 290 280 281 286 286
165 162 153 152 145 126 121 120 112 111 121 142 191 195 279 293 301 306 310 317 331 336 334 333 328 329 344 38 355 325 314 311 310 307 303 299 293 290 284 280 277 276 280
164 154 139 133 120 111 99 104 127 131 186 223 265 284 298 310 325 328 337 347 347 342 336 331 330 328 0 37 341 326 317 312 302 299 300 302 299 298 298 293 289 284 279
142 132 125 111 94 95 99 108 102 110 190 220 303 333 352 2 15 356 354 353 345 340 338 333 328 326 16 22 339 332 317 308 305 302 301 299 295 296 296 295 289 283 277
128 123 117 109 104 92 68 77 132 138 213 296 345 26 42 44 10 357 357 350 342 347 335 332 336 342 339 359 351 332 322 313 310 312 308 299 288 284 282 284 283 280 277
110 111 107 109 122 132 129 331 339 27 354 9 55 70 50 20 5 358 353 348 340 352 343 342 334 327 319 357 9 337 326 314 315 311 305 303 297 291 288 289 288 286 290
107 106 106 112 121 114 112 107 54 38 30 88 95 70 33 6 357 350 354 338 340 353 339 325 320 316 317 338 19 344 333 326 315 311 312 304 306 307 302 295 290 292 299
103 105 116 127 136 147 139 116 67 74 99 101 87 54 14 354 354 346 334 331 8 350 342 336 334 329 328 344 357 336 323 324 320 311 315 331 334 324 313 304 295 294 297
122 133 131 136 141 138 104 85 90 104 109 99 71 35 14 8 358 347 355 18 16 1 355 347 340 332 337 348 346 332 326 328 326 316 318 332 340 333 328 335 345 359 40
137 138 140 135 134 121 98 96 104 111 111 87 52 34 35 15 24 24 31 20 13 7 351 343 341 338 343 340 335 331 330 329 325 323 327 341 345 345 352 4 20 39 61
126 125 121 119 108 102 102 102 110 117 95 64 41 32 49 46 44 39 25 23 30 13 350 351 340 334 330 326 322 323 326 328 324 328 342 354 358 2 12 21 28 40 48
121 124 124 116 110 108 107 107 107 90 61 51 56 37 38 44 35 29 77 110 65 341 335 345 334 334 328 326 329 333 331 335 336 342 355 353 353 358 8 29 38 43 47
Height
1517 1519 1521 1525 1528 1531 1533 1534 1535 1536 1539 1543 1546 1546 1547 1548 1549 1550 1550 1550 1551 1552 1552 1552 1550 1549 1548 1546 1545 1543 1542 1541 1538 1535 1533 1531 1528 1524 1521 1521 1520 1518 1516
1512 1514 1518 1522 1526 1529 1531 1533 1534 1535 1539 1542 1544 1545 1546 1546 1546 1546 1548 1549 1549 1549 1549 1548 1547 1545 1544 1543 1541 1539 1537 1535 1534 1531 1528 1525 1522 1519 1519 1515 1515 1514 1512
1506 1509 1516 1519 1523 1526 1528 1531 1533 1534 1536 1537 1538 1541 1542 1543 1545 1546 1547 1547 1546 1546 1544 1543 1541 1540 1540 1539 1536 1535 1533 1531 1530 1528 1527 1524 1519 1517 1515 1512 1512 1509 1508
1500 1505 1510 1514 1518 1522 1525 1527 1530 1532 1534 1536 1537 1541 1542 1543 1545 1546 1546 1545 1543 1542 1540 1538 1536 1534 1535 1534 1533 1532 1530 1529 1527 1527 1525 1524 1522 1519 1513 1511 1509 1507 1503
1495 1500 1505 1509 1514 1520 1522 1523 1526 1529 1531 1534 1536 1539 1540 1542 1543 1544 1544 1543 1543 1541 1538 1534 1533 1533 1532 1530 1528 1527 1526 1525 1524 1524 1523 1521 1518 1517 1514 1510 1507 1504 1500
1492 1496 1501 1506 1512 1517 1520 1522 1524 1527 1530 1533 1536 1536 1537 1538 1539 1538 1541 1542 1540 1538 1536 1532 1531 1532 1531 1529 1527 1525 1524 1522 1521 1521 1519 1517 1516 1513 1511 1507 1503 1500 1496
1490 1494 1499 1504 1509 1513 1516 1520 1524 1527 1530 1532 1533 1533 1533 1533 1534 1531 1536 1538 1536 1533 1532 1530 1529 1530 1528 1526 1526 1524 1521 1520 1521 1520 1518 1516 1515 1511 1508 1503 1498 1494 1490
1490 1495 1499 1503 1508 1512 1516 1520 1524 1526 1528 1529 1530 1530 1530 1529 1531 1529 1532 1534 1533 1530 1529 1528 1528 1527 1526 1526 1525 1523 1520 1519 1519 1518 1514 1512 1512 1509 1506 1500 1495 1490 1486
1490 1494 1498 1503 1508 1514 1519 1521 1522 1524 1525 1525 1527 1527 1526 1526 1529 1528 1531 1533 1530 1530 1529 1527 1526 1526 1525 1525 1523 1522 1519 1518 1516 1514 1511 1508 1505 1503 1500 1496 1492 1488 1482
1490 1493 1499 1506 1510 1514 1517 1518 1521 1521 1522 1524 1526 1526 1524 1526 1529 1531 1530 1530 1530 1528 1527 1526 1525 1525 1524 1522 1520 1519 1518 1515 1512 1510 1507 1503 1499 1497 1493 1490 1487 1483 1478
1488 1493 1500 1506 1512 1514 1516 1515 1516 1518 1521 1523 1522 1523 1523 1525 1527 1529 1528 1529 1529 1527 1527 1525 1525 1524 1522 1520 1517 1515 1514 1510 1505 1502 1500 1496 1493 1490 1487 1484 1481 1477 1473
1488 1494 1498 1502 1507 1510 1511 1513 1514 1516 1518 1520 1521 1522 1522 1526 1527 1527 1527 1527 1527 1526 1525 1524 1522 1520 1518 1515 1512 1509 1507 1504 1499 1496 1493 1490 1486 1483 1480 1477 1473 1469 1466
1489 1493 1498 1504 1506 1509 1511 1512 1512 1515 1517 1519 1521 1522 1522 1524 1525 1526 1526 1526 1525 1524 1523 1521 1519 1515 1512 1509 1506 1503 1500 1496 1491 1488 1485 1481 1478 1475 1472 1469 1465 1462 1458
1488 1493 1499 1505 1507 1509 1511 1510 1512 1514 1516 1517 1520 1522 1523 1524 1525 1525 1524 1523 1522 1521 1518 1516 1514 1510 1506 1503 1499 1495 1491 1488 1484 1480 1476 1473 1470 1467 1464 1461 1458 1455 1451
1488 1492 1497 1500 1503 1507 1508 1511 1513 1513 1515 1517 1520 1521 1523 1524 1525 1525 1522 1520 1519 1517 1513 1510 1507 1505 1501 1497 1493 1489 1485 1481 1477 1472 1469 1465 1462 1459 1457 1454 1450 1447 1443
1486 1491 1496 1499 1503 1504 1507 1509 1510 1514 1518 1520 1521 1521 1522 1522 1523 1522 1520 1517 1515 1513 1509 1505 1503 1500 1497 1492 1488 1483 1478 1474 1470 1465 1461 1457 1453 1451 1449 1447 1443 1441 1437
1486 1492 1496 1500 1503 1504 1506 1508 1509 1513 1518 1521 1522 1521 1520 1520 1520 1520 1518 1515 1511 1509 1505 1502 1500 1497 1494 1489 1485 1479 1474 1469 1464 1460 1456 1452 1448 1445 1442 1439 1436 1433 1430
1486 1491 1496 1499 1501 1505 1504 1508 1509 1512 1518 1520 1521 1520 1518 1517 1518 1518 1515 1512 1509 1506 1502 1500 1498 1495 1492 1487 1481 1475 1470 1466 1462 1457 1452 1446 1441 1438 1435 1431 1428 1425 1421
1484 1489 1495 1499 1503 1505 1505 1510 1514 1513 1518 1520 1519 1517 1516 1516 1516 1515 1512 1509 1506 1504 1501 1499 1496 1493 1490 1485 1479 1473 1468 1463 1458 1453 1448 1441 1437 1433 1430 1425 1421 1417 1413
1486 1491 1497 1501 1503 1504 1507 1515 1516 1515 1518 1520 1517 1516 1516 1515 1514 1512 1509 1507 1505 1502 1499 1496 1494 1491 1487 1484 1478 1472 1465 1460 1454 1448 1442 1437 1432 1427 1423 1419 1415 1411 1408
1489 1494 1499 1502 1506 1506 1509 1514 1517 1517 1518 1518 1515 1516 1516 1514 1512 1510 1508 1506 1503 1500 1496 1494 1492 1488 1485 1482 1476 1470 1464 1457 1451 1444 1438 1432 1426 1420 1416 1413 1409 1406 1403
1494 1498 1500 1504 1509 1511 1512 1516 1517 1517 1518 1517 1515 1516 1515 1512 1511 1509 1507 1505 1502 1498 1495 1492 1489 1486 1483 1479 1474 1468 1463 1457 1450 1442 1435 1428 1420 1414 1410 1407 1405 1402 1400
1496 1500 1503 1508 1512 1514 1514 1517 1518 1518 1518 1518 1516 1515 1513 1511 1510 1509 1507 1504 1500 1498 1494 1490 1486 1483 1481 1477 1471 1465 1460 1455 1448 1441 1434 1426 1418 1412 1409 1405 1403 1400 1399
1502 1505 1509 1511 1514 1515 1517 1519 1518 1518 1519 1518 1516 1514 1513 1511 1510 1509 1506 1503 1500 1497 1493 1490 1487 1483 1479 1474 1468 1463 1458 1453 1447 1440 1433 1426 1419 1414 1410 1406 1404 1402 1401
1507 1509 1512 1514 1516 1518 1519 1519 1520 1520 1520 1518 1517 1516 1514 1512 1510 1507 1506 1503 1500 1497 1494 1490 1487 1482 1478 1474 1469 1463 1458 1452 1447 1441 1434 1428 1423 1418 1413 1410 1408 1406 1405
1510 1513 1515 1517 1518 1520 1521 1521 1522 1522 1521 1520 1518 1516 1515 1513 1510 1508 1505 1502 1500 1497 1494 1491 1488 1483 1479 1474 1469 1464 1459 1454 1449 1443 1437 1431 1427 1423 1419 1416 1413 1412 1411